Tracking 31027 objects as of 19-Jul-2025
HD Live streaming from Space Station
objects crossing your sky now

STARLINK-3358

Track STARLINK-3358 now!
10-day predictions
STARLINK-3358 is classified as:


NORAD ID: 51109
Int'l Code: 2022-005F
Perigee: 546.1 km
Apogee: 547.6 km
Inclination: 53.2 °
Period: 95.4 minutes
Semi major axis: 6917 km
RCS: Unknown
Launch date: January 19, 2022
Source: United States (US)
Launch site: AIR FORCE EASTERN TEST RANGE (AFETR)
Your satellite tracking list
SKOLTECH-B2
Track 1 satellite(s)




NASA's NSSDC Master Catalog

Two Line Element Set (TLE):
1 51109U 22005F   25199.43734812  .00000165  00000-0  28432-4 0  9998
2 51109  53.2172 260.6751 0001087  86.7786 273.3331 15.08838325193281
Source of the keplerian elements: AFSPC